User: anonymous   Login
Location: Caltech
(34.1382°N, 118.1253°W)
Time: 13:01:24
(UTC-08:00)
Language:

ASTRO E2 - Orbit

View from above orbital plane
View from above orbital plane
View from above satellite
View from above satellite

Ground track
Ground track

The orbit data is extracted from the following two-line orbital elements,

1 28773U 05025A   17049.91534551 +.00001394 +00000-0 +67293-4 0  9991
2 28773 031.3840 343.2410 0005023 240.8194 119.1951 15.15509077639413
Epoch (UTC): 18 February 2017 21:58:05
Eccentricity: 0.0005023
inclination: 31.3840°
perigee height: 516 km
apogee height: 523 km
right ascension of ascending node: 343.2410°
argument of perigee: 240.8194°
revolutions per day: 15.15509077
mean anomaly at epoch: 119.1951°
orbit number at epoch: 63941

The dashed part of the orbit path shows where the satellite is in the earth's shadow,  

DLR